"Serial No","Timestamp","Temperature","Humidity"
"1398882710","2014/05/01 00:01:50","29.2","55"
"1398883018","2014/05/01 00:06:58","29.2","55"
"1398883326","2014/05/01 00:12:06","29.1","56"
"1398883634","2014/05/01 00:17:14","29.1","56"
"1398883942","2014/05/01 00:22:22","29","57"
"1398884249","2014/05/01 00:27:29","29","57"
"1398884556","2014/05/01 00:32:36","28.9","58"
"1398884865","2014/05/01 00:37:45","28.9","58"
"1398885172","2014/05/01 00:42:52","28.8","59"
"1398885479","2014/05/01 00:47:59","28.7","59"
"1398885787","2014/05/01 00:53:07","28.7","60"
"1398886095","2014/05/01 00:58:15","28.6","60"
"1398886403","2014/05/01 01:03:23","28.6","60"
"1398886658","2014/05/01 01:07:38","28.6","60"
"1398886966","2014/05/01 01:12:46","28.5","60"
"1398887273","2014/05/01 01:17:53","28.5","61"
"1398887581","2014/05/01 01:23:01","28.4","61"
"1398887889","2014/05/01 01:28:09","28.4","61"
"1398888196","2014/05/01 01:33:16","28.3","62"
"1398888504","2014/05/01 01:38:24","28.3","62"
"1398888812","2014/05/01 01:43:32","28.2","62"
"1398889119","2014/05/01 01:48:39","28.2","62"
"1398889427","2014/05/01 01:53:47","28.2","63"
"1398889734","2014/05/01 01:58:54","28.1","63"
"1398890042","2014/05/01 02:04:02","28.1","63"
"1398890297","2014/05/01 02:08:17","28","63"
"1398890605","2014/05/01 02:13:25","28","63"
"1398890914","2014/05/01 02:18:34","27.9","64"
"1398891221","2014/05/01 02:23:41","27.9","64"
"1398891529","2014/05/01 02:28:49","27.9","64"
"1398891836","2014/05/01 02:33:56","27.8","64"
"1398892143","2014/05/01 02:39:03","27.8","64"
"1398892451","2014/05/01 02:44:11","27.8","64"
"1398892759","2014/05/01 02:49:19","27.7","64"
"1398893067","2014/05/01 02:54:27","27.7","64"
"1398893375","2014/05/01 02:59:35","27.7","64"
"1398893682","2014/05/01 03:04:42","27.6","64"
"1398893990","2014/05/01 03:09:50","27.6","64"
"1398894246","2014/05/01 03:14:06","27.6","64"
"1398894553","2014/05/01 03:19:13","27.6","64"
"1398894860","2014/05/01 03:24:20","27.5","64"
"1398895168","2014/05/01 03:29:28","27.5","64"
"1398895476","2014/05/01 03:34:36","27.5","64"
"1398895783","2014/05/01 03:39:43","27.4","64"
"1398896091","2014/05/01 03:44:51","27.4","64"
"1398896399","2014/05/01 03:49:59","27.4","64"
"1398896707","2014/05/01 03:55:07","27.4","64"
"1398897014","2014/05/01 04:00:14","27.4","63"
"1398897321","2014/05/01 04:05:21","27.3","63"
"1398897629","2014/05/01 04:10:29","27.3","63"
"1398897937","2014/05/01 04:15:37","27.3","63"
"1398898244","2014/05/01 04:20:44","27.3","63"
"1398898500","2014/05/01 04:25:00","27.3","64"
"1398898808","2014/05/01 04:30:08","27.2","64"
"1398899116","2014/05/01 04:35:16","27.2","64"
"1398899423","2014/05/01 04:40:23","27.1","64"
"1398899731","2014/05/01 04:45:31","27.1","65"
"1398900039","2014/05/01 04:50:39","27.1","65"
"1398900346","2014/05/01 04:55:46","27.1","65"
"1398900654","2014/05/01 05:00:54","27","65"
"1398900961","2014/05/01 05:06:01","27","65"
"1398901269","2014/05/01 05:11:09","27","64"
"1398901577","2014/05/01 05:16:17","27","64"
"1398901884","2014/05/01 05:21:24","26.9","64"
"1398902192","2014/05/01 05:26:32","26.9","64"
"1398902448","2014/05/01 05:30:48","26.9","65"
"1398902756","2014/05/01 05:35:56","26.8","65"
"1398903063","2014/05/01 05:41:03","26.8","65"
"1398903371","2014/05/01 05:46:11","26.7","65"
"1398903679","2014/05/01 05:51:19","26.7","64"
"1398903986","2014/05/01 05:56:26","26.6","64"
"1398904294","2014/05/01 06:01:34","26.6","64"
"1398904602","2014/05/01 06:06:42","26.6","64"
"1398904909","2014/05/01 06:11:49","26.6","64"
"1398905217","2014/05/01 06:16:57","26.6","64"
"1398905524","2014/05/01 06:22:04","26.5","65"
"1398905832","2014/05/01 06:27:12","26.5","65"
"1398906139","2014/05/01 06:32:19","26.5","65"
"1398906395","2014/05/01 06:36:35","26.5","65"
"1398906703","2014/05/01 06:41:43","26.5","65"
"1398907010","2014/05/01 06:46:50","26.4","65"
"1398907319","2014/05/01 06:51:59","26.4","65"
"1398907626","2014/05/01 06:57:06","26.4","65"
"1398907933","2014/05/01 07:02:13","26.4","65"
"1398908241","2014/05/01 07:07:21","26.4","65"
"1398908548","2014/05/01 07:12:28","26.4","66"
"1398908856","2014/05/01 07:17:36","26.4","66"
"1398909164","2014/05/01 07:22:44","26.4","66"
"1398909471","2014/05/01 07:27:51","26.5","65"
"1398909779","2014/05/01 07:32:59","26.5","65"
"1398910086","2014/05/01 07:38:06","26.5","65"
"1398910343","2014/05/01 07:42:23","26.6","65"
"1398910650","2014/05/01 07:47:30","26.6","65"
"1398910958","2014/05/01 07:52:38","26.6","65"
"1398911266","2014/05/01 07:57:46","26.7","65"
"1398911573","2014/05/01 08:02:53","26.7","65"
"1398911881","2014/05/01 08:08:01","26.8","65"
"1398912188","2014/05/01 08:13:08","26.8","65"
"1398912496","2014/05/01 08:18:16","26.9","65"
"1398912804","2014/05/01 08:23:24","27","65"
"1398913111","2014/05/01 08:28:31","27","64"
"1398913418","2014/05/01 08:33:38","27.1","64"
"1398913726","2014/05/01 08:38:46","27.2","63"
"1398914034","2014/05/01 08:43:54","27.3","63"
"1398914290","2014/05/01 08:48:10","27.3","63"
"1398914598","2014/05/01 08:53:18","27.4","63"
"1398914906","2014/05/01 08:58:26","27.4","62"
"1398915212","2014/05/01 09:03:32","27.5","62"
"1398915520","2014/05/01 09:08:40","27.6","62"
"1398915829","2014/05/01 09:13:49","27.6","62"
"1398916136","2014/05/01 09:18:56","27.7","62"
"1398916444","2014/05/01 09:24:04","27.8","62"
"1398916751","2014/05/01 09:29:11","27.8","61"
"1398917058","2014/05/01 09:34:18","27.9","61"
"1398917366","2014/05/01 09:39:26","28","61"
"1398917673","2014/05/01 09:44:33","28.1","61"
"1398917930","2014/05/01 09:48:50","28.1","61"
"1398918238","2014/05/01 09:53:58","28.2","60"
"1398918546","2014/05/01 09:59:06","28.3","60"
"1398918853","2014/05/01 10:04:13","28.3","60"
"1398919161","2014/05/01 10:09:21","28.4","60"
"1398919469","2014/05/01 10:14:29","28.5","59"
"1398919776","2014/05/01 10:19:36","28.5","59"
"1398920083","2014/05/01 10:24:43","28.6","59"
"1398920391","2014/05/01 10:29:51","28.7","59"
"1398920698","2014/05/01 10:34:58","28.8","58"
"1398921006","2014/05/01 10:40:06","28.8","58"
"1398921313","2014/05/01 10:45:13","28.9","58"
"1398921570","2014/05/01 10:49:30","29","58"
"1398921877","2014/05/01 10:54:37","29","57"
"1398922185","2014/05/01 10:59:45","29.1","57"
"1398922493","2014/05/01 11:04:53","29.2","55"
"1398922800","2014/05/01 11:10:00","29.3","55"
"1398923108","2014/05/01 11:15:08","29.4","55"
"1398923415","2014/05/01 11:20:15","29.4","55"
"1398923723","2014/05/01 11:25:23","29.5","55"
"1398924031","2014/05/01 11:30:31","29.5","54"
"1398924338","2014/05/01 11:35:38","29.5","53"
"1398924646","2014/05/01 11:40:46","29.5","52"
"1398924954","2014/05/01 11:45:54","29.6","53"
"1398925261","2014/05/01 11:51:01","29.7","52"
"1398925518","2014/05/01 11:55:18","29.7","52"
"1398925825","2014/05/01 12:00:25","29.8","53"
"1398926132","2014/05/01 12:05:32","29.8","52"
"1398926439","2014/05/01 12:10:39","29.9","52"
"1398926748","2014/05/01 12:15:48","30","52"
"1398927056","2014/05/01 12:20:56","30","50"
"1398927363","2014/05/01 12:26:03","30","53"
"1398927671","2014/05/01 12:31:11","30","52"
"1398927977","2014/05/01 12:36:17","30.1","51"
"1398928285","2014/05/01 12:41:25","30.2","50"
"1398928593","2014/05/01 12:46:33","30.3","48"
"1398928900","2014/05/01 12:51:40","30.3","50"
"1398929208","2014/05/01 12:56:48","30.3","48"
"1398929464","2014/05/01 13:01:04","30.3","49"
"1398929772","2014/05/01 13:06:12","30.4","50"
"1398930080","2014/05/01 13:11:20","30.4","50"
"1398930387","2014/05/01 13:16:27","30.4","50"
"1398930695","2014/05/01 13:21:35","30.5","49"
"1398931002","2014/05/01 13:26:42","30.5","49"
"1398931310","2014/05/01 13:31:50","30.5","49"
"1398931618","2014/05/01 13:36:58","30.5","49"
"1398931925","2014/05/01 13:42:05","30.6","48"
"1398932233","2014/05/01 13:47:13","30.6","47"
"1398932540","2014/05/01 13:52:20","30.7","46"
"1398932848","2014/05/01 13:57:28","30.8","46"
"1398933104","2014/05/01 14:01:44","30.9","46"
"1398933412","2014/05/01 14:06:52","30.9","45"
"1398933720","2014/05/01 14:12:00","31","45"
"1398934027","2014/05/01 14:17:07","31.1","45"
"1398934335","2014/05/01 14:22:15","31.1","44"
"1398934641","2014/05/01 14:27:21","31.1","44"
"1398934949","2014/05/01 14:32:29","31.1","44"
"1398935257","2014/05/01 14:37:37","31.1","45"
"1398935564","2014/05/01 14:42:44","31.2","41"
"1398935873","2014/05/01 14:47:53","31.3","40"
"1398936181","2014/05/01 14:53:01","31.3","42"
"1398936488","2014/05/01 14:58:08","31.3","41"
"1398936745","2014/05/01 15:02:25","31.4","41"
"1398937051","2014/05/01 15:07:31","31.5","39"
"1398937359","2014/05/01 15:12:39","31.5","39"
"1398937666","2014/05/01 15:17:46","31.6","39"
"1398937974","2014/05/01 15:22:54","31.5","40"
"1398938282","2014/05/01 15:28:02","31.5","39"
"1398938589","2014/05/01 15:33:09","31.4","38"
"1398938897","2014/05/01 15:38:17","31.4","38"
"1398939204","2014/05/01 15:43:24","31.3","37"
"1398939512","2014/05/01 15:48:32","31.3","37"
"1398939820","2014/05/01 15:53:40","31.2","41"
"1398940128","2014/05/01 15:58:48","31.1","42"
"1398940436","2014/05/01 16:03:56","31.1","43"
"1398940692","2014/05/01 16:08:12","31.1","43"
"1398941000","2014/05/01 16:13:20","31","43"
"1398941307","2014/05/01 16:18:27","31","43"
"1398941614","2014/05/01 16:23:34","30.9","44"
"1398941922","2014/05/01 16:28:42","30.9","44"
"1398942229","2014/05/01 16:33:49","30.8","43"
"1398942537","2014/05/01 16:38:57","30.8","44"
"1398942845","2014/05/01 16:44:05","30.8","44"
"1398943152","2014/05/01 16:49:12","30.8","44"
"1398943460","2014/05/01 16:54:20","30.8","44"
"1398943767","2014/05/01 16:59:27","30.7","44"
"1398944075","2014/05/01 17:04:35","30.7","44"
"1398944383","2014/05/01 17:09:43","30.7","45"
"1398944639","2014/05/01 17:13:59","30.7","46"
"1398944947","2014/05/01 17:19:07","30.7","46"
"1398945254","2014/05/01 17:24:14","30.6","47"
"1398945562","2014/05/01 17:29:22","30.6","47"
"1398945870","2014/05/01 17:34:30","30.6","47"
"1398946177","2014/05/01 17:39:37","30.5","47"
"1398946485","2014/05/01 17:44:45","30.5","47"
"1398946792","2014/05/01 17:49:52","30.5","48"
"1398947100","2014/05/01 17:55:00","30.4","47"
"1398947408","2014/05/01 18:00:08","30.4","47"
"1398947715","2014/05/01 18:05:15","30.4","47"
"1398948022","2014/05/01 18:10:22","30.3","48"
"1398948329","2014/05/01 18:15:29","30.3","46"
"1398948638","2014/05/01 18:20:38","30.3","46"
"1398948894","2014/05/01 18:24:54","30.3","45"
"1398949202","2014/05/01 18:30:02","30.2","45"
"1398949510","2014/05/01 18:35:10","30.2","46"
"1398949817","2014/05/01 18:40:17","30.1","45"
"1398950125","2014/05/01 18:45:25","30.1","45"
"1398950433","2014/05/01 18:50:33","30.1","44"
"1398950740","2014/05/01 18:55:40","30.1","44"
"1398951047","2014/05/01 19:00:47","30.1","45"
"1398951354","2014/05/01 19:05:54","30.1","44"
"1398951663","2014/05/01 19:11:03","30","45"
"1398951971","2014/05/01 19:16:11","30","45"
"1398952277","2014/05/01 19:21:17","30","45"
"1398952534","2014/05/01 19:25:34","30","44"
"1398952841","2014/05/01 19:30:41","29.9","44"
"1398953149","2014/05/01 19:35:49","29.9","45"
"1398953456","2014/05/01 19:40:56","29.8","45"
"1398953764","2014/05/01 19:46:04","29.8","45"
"1398954072","2014/05/01 19:51:12","29.8","45"
"1398954379","2014/05/01 19:56:19","29.7","46"
"1398954687","2014/05/01 20:01:27","29.7","46"
"1398954994","2014/05/01 20:06:34","29.6","46"
"1398955302","2014/05/01 20:11:42","29.6","46"
"1398955610","2014/05/01 20:16:50","29.5","46"
"1398955916","2014/05/01 20:21:56","29.5","46"
"1398956173","2014/05/01 20:26:13","29.5","46"
"1398956481","2014/05/01 20:31:21","29.5","46"
"1398956789","2014/05/01 20:36:29","29.4","46"
"1398957096","2014/05/01 20:41:36","29.4","47"
"1398957403","2014/05/01 20:46:43","29.4","47"
"1398957712","2014/05/01 20:51:52","29.3","47"
"1398958019","2014/05/01 20:56:59","29.3","47"
"1398958327","2014/05/01 21:02:07","29.2","48"
"1398958635","2014/05/01 21:07:15","29.2","48"
"1398958941","2014/05/01 21:12:21","29.2","48"
"1398959249","2014/05/01 21:17:29","29.2","48"
"1398959557","2014/05/01 21:22:37","29.2","49"
"1398959814","2014/05/01 21:26:54","29.3","49"
"1398960121","2014/05/01 21:32:01","29.3","49"
"1398960460","2014/05/01 21:37:40","29.3","49"
"1398960563","2014/05/01 21:39:23","29.3","49"
"1398960870","2014/05/01 21:44:30","29.2","49"
"1398961177","2014/05/01 21:49:37","29.2","49"
"1398961485","2014/05/01 21:54:45","29.2","49"
"1398961793","2014/05/01 21:59:53","29.1","49"
"1398962100","2014/05/01 22:05:00","29.1","49"
"1398962408","2014/05/01 22:10:08","29","49"
"1398962664","2014/05/01 22:14:24","29","49"
"1398962972","2014/05/01 22:19:32","29","50"
"1398963279","2014/05/01 22:24:39","28.9","50"
"1398963587","2014/05/01 22:29:47","28.9","50"
"1398963895","2014/05/01 22:34:55","28.8","50"
"1398964202","2014/05/01 22:40:02","28.8","50"
"1398964510","2014/05/01 22:45:10","28.8","50"
"1398964817","2014/05/01 22:50:17","28.7","50"
"1398965125","2014/05/01 22:55:25","28.6","50"
"1398965433","2014/05/01 23:00:33","28.6","50"
"1398965740","2014/05/01 23:05:40","28.5","50"
"1398966047","2014/05/01 23:10:47","28.5","50"
"1398966304","2014/05/01 23:15:04","28.5","51"
"1398966612","2014/05/01 23:20:12","28.5","51"
"1398966919","2014/05/01 23:25:19","28.4","51"
"1398967227","2014/05/01 23:30:27","28.4","51"
"1398967534","2014/05/01 23:35:34","28.3","51"
"1398967841","2014/05/01 23:40:41","28.3","51"
"1398968150","2014/05/01 23:45:50","28.2","51"
"1398968458","2014/05/01 23:50:58","28.2","51"
"1398968765","2014/05/01 23:56:05","28.2","52"
"1398969073","2014/05/02 00:01:13","28.1","52"
"1398969380","2014/05/02 00:06:20","28.1","52"
"1398969637","2014/05/02 00:10:37","28.1","52"
"1398969943","2014/05/02 00:15:43","28.1","52"
"1398970251","2014/05/02 00:20:51","28.1","52"
"1398970559","2014/05/02 00:25:59","28","52"
"1398970866","2014/05/02 00:31:06","28","51"
"1398971175","2014/05/02 00:36:15","28","51"
"1398971482","2014/05/02 00:41:22","27.9","51"
"1398971790","2014/05/02 00:46:30","27.9","52"
"1398972098","2014/05/02 00:51:38","27.8","51"
"1398972405","2014/05/02 00:56:45","27.8","51"
"1398972713","2014/05/02 01:01:53","27.8","51"
"1398973020","2014/05/02 01:07:00","27.7","51"
"1398973327","2014/05/02 01:12:07","27.7","52"
"1398973584","2014/05/02 01:16:24","27.6","52"
"1398973891","2014/05/02 01:21:31","27.6","52"
"1398974199","2014/05/02 01:26:39","27.6","52"
"1398974506","2014/05/02 01:31:46","27.6","51"
"1398974814","2014/05/02 01:36:54","27.5","52"
"1398975122","2014/05/02 01:42:02","27.5","52"
"1398975429","2014/05/02 01:47:09","27.5","52"
"1398975737","2014/05/02 01:52:17","27.4","52"
"1398976044","2014/05/02 01:57:24","27.4","52"
"1398976352","2014/05/02 02:02:32","27.4","52"
"1398976660","2014/05/02 02:07:40","27.4","52"
"1398976967","2014/05/02 02:12:47","27.3","53"
"1398978776","2014/05/02 02:42:56","27","54"
"1398979032","2014/05/02 02:47:12","26.9","54"
"1398979339","2014/05/02 02:52:19","26.9","55"
"1398979648","2014/05/02 02:57:28","26.8","55"
"1398979955","2014/05/02 03:02:35","26.8","55"
"1398980262","2014/05/02 03:07:42","26.7","55"
"1398980571","2014/05/02 03:12:51","26.6","55"
"1398980878","2014/05/02 03:17:58","26.6","55"
"1398981185","2014/05/02 03:23:05","26.5","55"
"1398981493","2014/05/02 03:28:13","26.5","55"
"1398981800","2014/05/02 03:33:20","26.4","55"
"1398982108","2014/05/02 03:38:28","26.4","55"
"1398982416","2014/05/02 03:43:36","26.4","56"
"1398982672","2014/05/02 03:47:52","26.4","56"
"1398982980","2014/05/02 03:53:00","26.4","56"
"1398983287","2014/05/02 03:58:07","26.4","56"
"1398983595","2014/05/02 04:03:15","26.4","56"
"1398983902","2014/05/02 04:08:22","26.4","56"
"1398984209","2014/05/02 04:13:29","26.3","56"
"1398984518","2014/05/02 04:18:38","26.3","56"
"1398984825","2014/05/02 04:23:45","26.3","56"
"1398985133","2014/05/02 04:28:53","26.3","56"
"1398985441","2014/05/02 04:34:01","26.3","57"
"1398985748","2014/05/02 04:39:08","26.3","56"
"1398986004","2014/05/02 04:43:24","26.3","56"
"1398986312","2014/05/02 04:48:32","26.3","56"
"1398986620","2014/05/02 04:53:40","26.3","56"
"1398986927","2014/05/02 04:58:47","26.3","56"
"1398987235","2014/05/02 05:03:55","26.3","56"
"1398987543","2014/05/02 05:09:03","26.3","57"
"1398987850","2014/05/02 05:14:10","26.3","57"
"1398988158","2014/05/02 05:19:18","26.2","57"
"1398988465","2014/05/02 05:24:25","26.2","57"
"1398988772","2014/05/02 05:29:32","26.2","57"
"1398989080","2014/05/02 05:34:40","26.2","57"
"1398989388","2014/05/02 05:39:48","26.2","57"
"1398989696","2014/05/02 05:44:56","26.2","57"
"1398989951","2014/05/02 05:49:11","26.2","57"
"1398990259","2014/05/02 05:54:19","26.2","57"
"1398990566","2014/05/02 05:59:26","26.2","57"
"1398990874","2014/05/02 06:04:34","26.2","57"
"1398991182","2014/05/02 06:09:42","26.3","57"
"1398991489","2014/05/02 06:14:49","26.2","57"
"1398991797","2014/05/02 06:19:57","26.2","57"
"1398992105","2014/05/02 06:25:05","26.2","58"
"1398992412","2014/05/02 06:30:12","26.2","58"
"1398992720","2014/05/02 06:35:20","26.2","58"
"1398993027","2014/05/02 06:40:27","26.2","58"
"1398993335","2014/05/02 06:45:35","26.2","58"
"1398993643","2014/05/02 06:50:43","26.2","58"
"1398993950","2014/05/02 06:55:50","26.2","57"
"1398994207","2014/05/02 07:00:07","26.2","58"
"1398994514","2014/05/02 07:05:14","26.2","58"
"1398994822","2014/05/02 07:10:22","26.3","58"
"1398995129","2014/05/02 07:15:29","26.3","58"
"1398995437","2014/05/02 07:20:37","26.3","58"
"1398995745","2014/05/02 07:25:45","26.3","59"
"1398996051","2014/05/02 07:30:51","26.4","59"
"1398996359","2014/05/02 07:35:59","26.4","58"
"1398996668","2014/05/02 07:41:08","26.4","58"
"1398996975","2014/05/02 07:46:15","26.4","58"
"1398997283","2014/05/02 07:51:23","26.5","58"
"1398997590","2014/05/02 07:56:30","26.5","58"
"1398997897","2014/05/02 08:01:37","26.5","58"
"1398998153","2014/05/02 08:05:53","26.5","58"
"1398998461","2014/05/02 08:11:01","26.5","59"
"1398998769","2014/05/02 08:16:09","26.6","59"
"1398999077","2014/05/02 08:21:17","26.6","59"
"1398999385","2014/05/02 08:26:25","26.7","58"
"1398999692","2014/05/02 08:31:32","26.7","58"
"1399000000","2014/05/02 08:36:40","26.8","58"
"1399000307","2014/05/02 08:41:47","26.9","57"
"1399000614","2014/05/02 08:46:54","27","58"
"1399000923","2014/05/02 08:52:03","27.1","57"
"1399001231","2014/05/02 08:57:11","27.2","57"
"1399001537","2014/05/02 09:02:17","27.3","57"
"1399001794","2014/05/02 09:06:34","27.4","57"
"1399002102","2014/05/02 09:11:42","27.5","57"
"1399002410","2014/05/02 09:16:50","27.6","57"
"1399002716","2014/05/02 09:21:56","27.6","57"
"1399003024","2014/05/02 09:27:04","27.7","57"
"1399003332","2014/05/02 09:32:12","27.8","58"
"1399003639","2014/05/02 09:37:19","27.9","58"
"1399003947","2014/05/02 09:42:27","27.9","58"
"1399004254","2014/05/02 09:47:34","28","57"
"1399004562","2014/05/02 09:52:42","28.1","57"
"1399004870","2014/05/02 09:57:50","28.1","57"
"1399005177","2014/05/02 10:02:57","28.2","56"
"1399005485","2014/05/02 10:08:05","28.2","57"
"1399005741","2014/05/02 10:12:21","28.3","57"
"1399006049","2014/05/02 10:17:29","28.3","57"
"1399006357","2014/05/02 10:22:37","28.4","57"
"1399006664","2014/05/02 10:27:44","28.5","57"
"1399006972","2014/05/02 10:32:52","28.5","56"
"1399007279","2014/05/02 10:37:59","28.6","56"
"1399007586","2014/05/02 10:43:06","28.6","56"
"1399007894","2014/05/02 10:48:14","28.7","56"
"1399008202","2014/05/02 10:53:22","28.8","56"
"1399008510","2014/05/02 10:58:30","28.9","55"
"1399008817","2014/05/02 11:03:37","28.9","55"
"1399009125","2014/05/02 11:08:45","29","55"
"1399009380","2014/05/02 11:13:00","29","56"
"1399009688","2014/05/02 11:18:08","29.1","56"
"1399009997","2014/05/02 11:23:17","29.2","56"
"1399010304","2014/05/02 11:28:24","29.2","55"
"1399010611","2014/05/02 11:33:31","29.3","55"
"1399010918","2014/05/02 11:38:38","29.4","53"
"1399011227","2014/05/02 11:43:47","29.4","52"
"1399011535","2014/05/02 11:48:55","29.4","54"
"1399011842","2014/05/02 11:54:02","29.5","53"
"1399012150","2014/05/02 11:59:10","29.6","53"
"1399012457","2014/05/02 12:04:17","29.6","51"
"1399012764","2014/05/02 12:09:24","29.7","51"
"1399013072","2014/05/02 12:14:32","29.7","51"
"1399013328","2014/05/02 12:18:48","29.8","51"
"1399013636","2014/05/02 12:23:56","29.8","49"
"1399013943","2014/05/02 12:29:03","29.8","49"
"1399014251","2014/05/02 12:34:11","29.8","51"
"1399014559","2014/05/02 12:39:19","29.8","49"
"1399014866","2014/05/02 12:44:26","29.8","50"
"1399015174","2014/05/02 12:49:34","29.9","50"
"1399015481","2014/05/02 12:54:41","30","50"
"1399015789","2014/05/02 12:59:49","30.1","50"
"1399016097","2014/05/02 13:04:57","30.1","50"
"1399016404","2014/05/02 13:10:04","30.2","50"
"1399016712","2014/05/02 13:15:12","30.2","48"
"1399016968","2014/05/02 13:19:28","30.3","47"
"1399017275","2014/05/02 13:24:35","30.4","46"
"1399017583","2014/05/02 13:29:43","30.5","47"
"1399017891","2014/05/02 13:34:51","30.5","47"
"1399018199","2014/05/02 13:39:59","30.6","46"
"1399018505","2014/05/02 13:45:05","30.7","46"
"1399018813","2014/05/02 13:50:13","30.7","46"
"1399019122","2014/05/02 13:55:22","30.8","45"
"1399019429","2014/05/02 14:00:29","30.9","46"
"1399019736","2014/05/02 14:05:36","30.9","45"
"1399020043","2014/05/02 14:10:43","30.9","47"
"1399020351","2014/05/02 14:15:51","30.9","47"
"1399020607","2014/05/02 14:20:07","30.8","47"
"1399020915","2014/05/02 14:25:15","30.8","48"
"1399021223","2014/05/02 14:30:23","30.8","47"
"1399021530","2014/05/02 14:35:30","30.8","46"
"1399021838","2014/05/02 14:40:38","30.8","45"
"1399022147","2014/05/02 14:45:47","30.8","45"
"1399022454","2014/05/02 14:50:54","30.8","45"
"1399022761","2014/05/02 14:56:01","30.8","47"
"1399023068","2014/05/02 15:01:08","30.7","46"
"1399023376","2014/05/02 15:06:16","30.7","46"
"1399023684","2014/05/02 15:11:24","30.6","48"
"1399023992","2014/05/02 15:16:32","30.6","48"
"1399024249","2014/05/02 15:20:49","30.6","47"
"1399024555","2014/05/02 15:25:55","30.6","48"
"1399024863","2014/05/02 15:31:03","30.6","47"
"1399025170","2014/05/02 15:36:10","30.7","47"
"1399025478","2014/05/02 15:41:18","30.7","46"
"1399025787","2014/05/02 15:46:27","30.8","46"
"1399026094","2014/05/02 15:51:34","30.8","46"
"1399026402","2014/05/02 15:56:42","30.9","46"
"1399026710","2014/05/02 16:01:50","30.9","45"
"1399027016","2014/05/02 16:06:56","30.9","43"
"1399027324","2014/05/02 16:12:04","30.8","43"
"1399027631","2014/05/02 16:17:11","30.8","42"
"1399027939","2014/05/02 16:22:19","30.7","42"
"1399028195","2014/05/02 16:26:35","30.7","42"
"1399028503","2014/05/02 16:31:43","30.6","42"
"1399028810","2014/05/02 16:36:50","30.5","42"
"1399029117","2014/05/02 16:41:57","30.5","42"
"1399029426","2014/05/02 16:47:06","30.4","42"
"1399029733","2014/05/02 16:52:13","30.4","42"
"1399030040","2014/05/02 16:57:20","30.3","42"
"1399030348","2014/05/02 17:02:28","30.3","43"
"1399030655","2014/05/02 17:07:35","30.3","44"
"1399039314","2014/05/02 19:31:54","28.9","53"
"1399039572","2014/05/02 19:36:12","28.9","53"
"1399039878","2014/05/02 19:41:18","28.8","54"
"1399040186","2014/05/02 19:46:26","28.8","53"
"1399040495","2014/05/02 19:51:35","28.7","53"
"1399040801","2014/05/02 19:56:41","28.7","53"
"1399041109","2014/05/02 20:01:49","28.7","53"
"1399041416","2014/05/02 20:06:56","28.6","54"
"1399041724","2014/05/02 20:12:04","28.5","54"
"1399042032","2014/05/02 20:17:12","28.5","54"
"1399042339","2014/05/02 20:22:19","28.5","55"
"1399042647","2014/05/02 20:27:27","28.4","55"
"1399042954","2014/05/02 20:32:34","28.4","55"
"1399043262","2014/05/02 20:37:42","28.4","56"
"1399043518","2014/05/02 20:41:58","28.4","56"
"1399043826","2014/05/02 20:47:06","28.4","56"